Weather History for Fort Wayne, IN

Change the Weather History Date:

Saturday, April 20, 2013

  Actual Average Record
Temperature  
Mean Temperature 38 °F 52 °F  
Max Temperature 44 °F 63 °F 84 °F (1985)
Min Temperature 31 °F 40 °F 20 °F (1904)
Degree Days  
Heating Degree Days 27 14  
Month to date heating degree days 353 341  
Since 1 July heating degree days 5726 5765  
Cooling Degree Days 0 0  
Month to date cooling degree days 0 0  
Year to date cooling degree days 0 0  
Growing Degree Days 0 (Base 50)    
Moisture  
Dew Point 26 °F    
Average Humidity 66    
Maximum Humidity 89    
Minimum Humidity 43    
Precipitation  
Precipitation T in 0.11 in 1.44 in (1920)
Month to date precipitation 5.31 2.40  
Year to date precipitation 12.94 9.41  
Snow  
Snow T in 0.00 in 0.20 in (1953)
Month to date snowfall T 0.9  
Since 1 July snowfall 38.5 33.4  
Snow Depth T in    
Sea Level Pressure  
Sea Level Pressure 30.18 in    
Wind  
Wind Speed 12 mph (WNW)    
Max Wind Speed 23 mph    
Max Gust Speed 29 mph    
Visibility 10 miles    
Events Snow    
T = Trace of Precipitation, MM = Missing Value Source: NWS Daily Summary

Daily Weather History Graph

Daily Weather History Graph

Search for Another Location

Airport:

Trip Planner

Search our weather history database for the weather conditions in past years. The results will help you decide how hot, cold, wet, or windy it might be!

Date:

Astronomy

Apr. 20, 2013 Rise Set
Actual Time 6:53 AM EDT 8:26 PM EDT
Civil Twilight 6:24 AM EDT 8:55 PM EDT
Nautical Twilight 5:50 AM EDT 9:30 PM EDT
Astronomical Twilight 5:13 AM EDT 10:07 PM EDT
Moon 3:06 PM EDT (4/20) 3:45 AM EDT (4/20)
Length of Visible Light 14h 30m
Length of Day
13h 32m
Waxing Gibbous, 71% of the Moon is Illuminated
Apr 20
Waxing Gibbous
Apr 25
Full
May 2
Last Quarter
May 9
New
May 18
First Quarter

Hourly Weather History & Observations

Time (EDT) Temp. Windchill Dew Point Humidity Pressure Visibility Wind Dir Wind Speed Gust Speed Precip Events Conditions
12:54 AM 35.1 °F 24.5 °F 30.9 °F 85% 29.91 in 10.0 mi West 18.4 mph - N/A   Mostly Cloudy
1:54 AM 34.0 °F 23.0 °F 28.9 °F 82% 29.94 in 10.0 mi WSW 18.4 mph - N/A   Partly Cloudy
2:54 AM 34.0 °F 23.4 °F 30.0 °F 85% 29.96 in 10.0 mi West 17.3 mph - N/A   Mostly Cloudy
3:54 AM 34.0 °F 24.6 °F 28.9 °F 82% 29.97 in 10.0 mi West 13.8 mph - N/A   Mostly Cloudy
4:54 AM 33.1 °F 23.9 °F 30.0 °F 89% 30.00 in 10.0 mi West 12.7 mph - N/A   Partly Cloudy
5:47 AM 33.8 °F 24.8 °F 30.2 °F 87% 30.00 in 5.0 mi WNW 12.7 mph - 0.00 in Snow Light Snow
5:54 AM 34.0 °F 24.2 °F 28.0 °F 79% 30.02 in 10.0 mi WNW 15.0 mph 21.9 mph 0.00 in Snow Light Snow
6:02 AM 33.8 °F 24.8 °F 28.4 °F 81% 30.01 in 10.0 mi NW 12.7 mph 21.9 mph 0.00 in Snow Light Snow
6:49 AM 33.8 °F 25.3 °F 28.4 °F 81% 30.03 in 10.0 mi West 11.5 mph - 0.00 in   Mostly Cloudy
6:54 AM 33.1 °F 25.5 °F 28.0 °F 82% 30.06 in 10.0 mi West 9.2 mph - 0.00 in   Mostly Cloudy
7:17 AM 33.8 °F 27.0 °F 26.6 °F 75% 30.05 in 10.0 mi WNW 8.1 mph - N/A   Mostly Cloudy
7:54 AM 33.1 °F 24.9 °F 27.0 °F 78% 30.11 in 10.0 mi WNW 10.4 mph - N/A   Mostly Cloudy
8:47 AM 35.6 °F 27.5 °F 26.6 °F 70% 30.12 in 10.0 mi West 11.5 mph 17.3 mph N/A   Mostly Cloudy
8:54 AM 35.1 °F 25.5 °F 26.1 °F 70% 30.14 in 10.0 mi WNW 15.0 mph - N/A   Mostly Cloudy
9:26 AM 35.6 °F 28.6 °F 26.6 °F 70% 30.13 in 10.0 mi WNW 9.2 mph - N/A   Mostly Cloudy
9:54 AM 36.0 °F 28.5 °F 25.0 °F 64% 30.17 in 10.0 mi West 10.4 mph 21.9 mph N/A   Mostly Cloudy
10:54 AM 37.9 °F 30.0 °F 27.0 °F 65% 30.20 in 10.0 mi West 12.7 mph - N/A   Mostly Cloudy
11:54 AM 39.9 °F 32.1 °F 27.0 °F 60% 30.23 in 10.0 mi WNW 13.8 mph 23.0 mph N/A   Mostly Cloudy
12:54 PM 41.0 °F 33.5 °F 27.0 °F 57% 30.25 in 10.0 mi West 13.8 mph - N/A   Mostly Cloudy
1:54 PM 42.1 °F 33.3 °F 28.0 °F 58% 30.25 in 10.0 mi West 19.6 mph 24.2 mph N/A   Mostly Cloudy
2:54 PM 41.0 °F 34.3 °F 27.0 °F 57% 30.28 in 10.0 mi WNW 11.5 mph 21.9 mph N/A   Mostly Cloudy
3:54 PM 44.1 °F 37.1 °F 27.0 °F 51% 30.29 in 10.0 mi WNW 15.0 mph 21.9 mph N/A   Mostly Cloudy
4:54 PM 42.1 °F 35.2 °F 24.1 °F 49% 30.31 in 10.0 mi West 12.7 mph - N/A   Mostly Cloudy
5:54 PM 43.0 °F 36.4 °F 23.0 °F 45% 30.33 in 10.0 mi NW 12.7 mph 17.3 mph N/A   Mostly Cloudy
6:54 PM 43.0 °F 37.2 °F 21.0 °F 42% 30.34 in 10.0 mi NNW 10.4 mph - N/A   Partly Cloudy
7:54 PM 39.9 °F 33.9 °F 21.9 °F 49% 30.36 in 10.0 mi NNW 9.2 mph - N/A   Partly Cloudy
8:54 PM 37.0 °F 32.4 °F 23.0 °F 57% 30.39 in 10.0 mi North 5.8 mph - N/A   Partly Cloudy
9:54 PM 36.0 °F 31.1 °F 21.0 °F 55% 30.43 in 10.0 mi NNE 5.8 mph - N/A   Clear
10:54 PM 34.0 °F 28.8 °F 21.0 °F 59% 30.45 in 10.0 mi NNE 5.8 mph - N/A   Clear
11:54 PM 33.1 °F 27.7 °F 19.0 °F 56% 30.47 in 10.0 mi NNE 5.8 mph - N/A   Clear